Temperature
-0 0 -0 -0 -0 -1 -1 -1 -0 0 -0 0 -1 -2 -2 -2 -2 -2 -2 -2 -2 -2 -2 -2 -2 -2 -2 -3 -3 -3 -3 -3 -3 -3 -3 -3 -3 -3 -3 -3 -3 -3 -3 -3
-1 -1 -1 -1 -1 -1 -1 -1 -1 -1 -1 -1 -2 -2 -3 -3 -3 -3 -3 -3 -3 -3 -3 -3 -3 -3 -3 -3 -4 -4 -3 -3 -3 -4 -4 -4 -4 -4 -4 -4 -4 -4 -4 -4
-1 -2 -1 -1 -2 -2 -2 -3 -2 -1 -1 -3 -4 -4 -4 -4 -4 -4 -3 -3 -3 -3 -3 -3 -3 -4 -4 -4 -4 -4 -4 -4 -4 -4 -4 -5 -5 -5 -5 -5 -5 -5 -5 -5
-2 -2 -1 -0 -2 -2 -3 -3 -4 -4 -4 -4 -4 -4 -4 -3 -3 -4 -4 -4 -4 -4 -4 -4 -4 -4 -4 -5 -5 -5 -5 -5 -5 -5 -5 -5 -5 -5 -5 -5 -6 -6 -6 -6
-2 -2 -2 -2 -3 -4 -4 -3 -5 -5 -5 -5 -5 -5 -5 -4 -4 -4 -4 -4 -5 -5 -5 -5 -5 -5 -5 -5 -6 -6 -6 -6 -6 -6 -6 -6 -6 -6 -6 -6 -6 -6 -6 -6
-3 -2 -2 -1 -4 -4 -4 -3 -5 -5 -6 -6 -6 -6 -5 -4 -4 -5 -5 -5 -5 -5 -6 -6 -6 -6 -6 -6 -7 -7 -7 -7 -6 -7 -7 -7 -7 -7 -7 -7 -7 -7 -7 -7
-3 -3 -3 -4 -5 -4 -3 -2 -5 -6 -6 -7 -7 -6 -6 -6 -6 -6 -6 -6 -6 -6 -6 -7 -7 -7 -7 -7 -7 -7 -7 -7 -7 -7 -7 -7 -8 -8 -8 -8 -8 -8 -8 -8
-4 -4 -3 -6 -6 -5 -4 -5 -5 -6 -6 -6 -7 -7 -7 -7 -7 -7 -7 -7 -7 -7 -7 -8 -8 -8 -8 -8 -8 -8 -8 -8 -8 -8 -8 -8 -8 -9 -9 -9 -9 -9 -9 -9
-5 -4 -6 -7 -6 -6 -6 -6 -6 -6 -6 -6 -7 -8 -8 -8 -8 -8 -8 -8 -8 -8 -8 -8 -9 -9 -9 -9 -9 -9 -9 -9 -9 -9 -9 -9 -9 -9 -10 -10 -10 -10 -10 -10
-7 -7 -8 -7 -7 -7 -7 -7 -7 -7 -7 -7 -8 -8 -9 -9 -9 -9 -9 -9 -9 -9 -9 -9 -9 -9 -9 -9 -9 -9 -9 -9 -9 -10 -10 -10 -10 -10 -11 -11 -11 -11 -11 -11
-8 -8 -9 -8 -8 -7 -7 -7 -7 -8 -8 -8 -9 -9 -9 -10 -10 -10 -10 -10 -10 -10 -10 -10 -10 -10 -10 -10 -10 -10 -10 -10 -10 -10 -11 -11 -11 -11 -11 -11 -11 -11 -12 -12
-7 -8 -9 -8 -7 -8 -8 -8 -8 -9 -9 -9 -9 -10 -10 -10 -11 -11 -11 -11 -11 -11 -11 -10 -11 -11 -11 -11 -11 -11 -11 -11 -11 -11 -11 -12 -12 -12 -12 -12 -12 -12 -12 -12
-8 -8 -8 -8 -8 -9 -9 -9 -9 -9 -10 -10 -10 -11 -11 -11 -11 -11 -11 -11 -11 -11 -11 -11 -11 -11 -11 -12 -12 -12 -12 -12 -12 -12 -12 -12 -13 -13 -12 -12 -12 -13 -13 -13
-8 -9 -9 -9 -10 -10 -10 -10 -10 -10 -11 -11 -11 -11 -12 -12 -12 -12 -12 -12 -12 -12 -12 -12 -12 -12 -12 -13 -13 -13 -13 -13 -13 -13 -13 -13 -13 -13 -13 -13 -13 -13 -13 -13
-9 -9 -10 -10 -10 -10 -10 -11 -11 -11 -11 -12 -12 -12 -12 -12 -12 -12 -13 -13 -13 -13 -13 -13 -13 -13 -13 -13 -13 -13 -14 -14 -14 -14 -14 -14 -14 -14 -14 -14 -14 -14 -13 -13
-10 -10 -10 -11 -11 -11 -11 -11 -12 -12 -12 -12 -13 -13 -13 -13 -13 -13 -13 -13 -13 -13 -14 -14 -14 -14 -14 -14 -14 -14 -14 -14 -14 -14 -14 -15 -15 -15 -15 -15 -15 -15 -14 -14
-11 -11 -12 -12 -12 -12 -12 -12 -12 -13 -13 -13 -13 -13 -13 -13 -13 -14 -14 -14 -14 -14 -14 -14 -14 -14 -15 -15 -15 -15 -15 -15 -15 -15 -15 -15 -15 -15 -15 -15 -15 -15 -15 -15
-11 -11 -11 -11 -12 -12 -13 -13 -13 -13 -13 -14 -14 -14 -14 -14 -14 -14 -14 -14 -15 -15 -15 -15 -15 -15 -15 -15 -15 -15 -15 -15 -15 -16 -16 -16 -16 -16 -16 -16 -16 -16 -15 -15
-11 -12 -12 -12 -12 -13 -13 -13 -13 -14 -14 -14 -14 -14 -14 -14 -15 -15 -15 -15 -15 -15 -15 -15 -15 -15 -15 -16 -16 -16 -16 -16 -16 -16 -16 -16 -16 -16 -16 -16 -16 -16 -16 -16
-12 -12 -12 -13 -13 -13 -14 -14 -14 -14 -14 -15 -15 -15 -15 -15 -15 -15 -15 -16 -16 -16 -16 -16 -16 -16 -16 -16 -16 -16 -16 -17 -17 -17 -17 -17 -17 -17 -17 -17 -17 -17 -17 -16
-12 -13 -13 -13 -13 -14 -14 -14 -14 -15 -15 -15 -15 -15 -15 -16 -16 -16 -16 -16 -16 -16 -17 -17 -17 -17 -17 -17 -17 -17 -17 -17 -17 -17 -17 -17 -17 -17 -17 -17 -17 -17 -17 -17
-13 -13 -13 -14 -14 -14 -14 -15 -15 -15 -15 -15 -16 -16 -16 -16 -16 -17 -17 -17 -17 -17 -17 -17 -17 -17 -17 -17 -18 -18 -18 -18 -18 -18 -18 -18 -18 -18 -18 -18 -18 -18 -18 -18
-13 -14 -14 -14 -14 -15 -15 -15 -15 -15 -16 -16 -16 -16 -17 -17 -17 -17 -17 -17 -18 -18 -18 -18 -18 -18 -18 -18 -18 -18 -18 -18 -18 -18 -18 -18 -18 -18 -18 -18 -18 -18 -18 -18
-14 -14 -14 -15 -15 -15 -15 -15 -16 -16 -16 -16 -17 -17 -17 -17 -17 -18 -18 -18 -18 -18 -18 -19 -19 -19 -19 -19 -19 -19 -19 -19 -19 -19 -19 -19 -19 -19 -19 -19 -19 -19 -19 -19
-14 -15 -15 -15 -15 -15 -16 -16 -16 -16 -17 -17 -17 -17 -18 -18 -18 -18 -18 -18 -18 -19 -19 -19 -19 -19 -19 -19 -19 -19 -19 -19 -19 -19 -19 -19 -19 -19 -19 -19 -19 -19 -19 -19
-15 -15 -15 -16 -16 -16 -16 -17 -17 -17 -17 -17 -17 -18 -18 -18 -18 -18 -19 -19 -19 -19 -19 -19 -19 -19 -19 -20 -20 -20 -20 -20 -20 -20 -20 -20 -20 -20 -20 -19 -19 -19 -19 -19
-15 -16 -16 -16 -16 -16 -17 -17 -17 -17 -18 -18 -18 -18 -18 -19 -19 -19 -19 -19 -19 -19 -19 -19 -20 -20 -20 -20 -20 -20 -20 -20 -20 -20 -20 -20 -20 -20 -20 -20 -20 -19 -19 -19
Wind_Speed
9 8 6 8 10 10 11 11 11 11 11 13 9 8 6 5 4 4 4 4 5 5 4 4 3 3 3 3 2 2 2 3 3 3 3 2 2 2 2 2 3 3 3 3
7 7 7 10 12 12 13 11 13 13 14 11 7 4 4 5 5 6 6 6 6 5 5 5 4 4 3 3 3 2 3 3 3 2 2 2 2 2 2 2 3 2 3 4
6 5 5 10 12 13 9 8 9 14 14 6 5 6 6 7 7 7 7 6 6 6 6 6 5 4 4 4 2 2 3 3 2 2 2 3 3 2 3 3 3 3 4 4
3 2 9 9 3 7 9 10 10 8 7 6 8 7 6 6 7 7 6 6 6 5 5 4 4 3 3 2 2 2 2 3 3 2 3 2 2 3 3 3 3 4 4 4
3 6 10 8 4 4 6 8 8 10 10 7 5 3 4 4 4 5 6 6 5 4 4 3 3 2 2 2 2 2 3 3 3 3 2 2 2 3 3 3 3 4 4 4
5 6 8 7 2 2 2 7 4 5 7 5 1 3 5 2 2 3 3 3 3 2 1 2 2 2 2 2 2 3 3 3 3 2 2 3 3 3 2 3 3 4 4 4
8 9 9 5 1 3 4 6 2 3 4 4 4 5 3 2 2 2 2 2 1 0 1 2 1 2 2 2 3 3 2 2 2 2 2 3 3 2 2 3 3 3 4 4
6 8 10 2 3 6 5 2 2 3 3 3 4 3 2 2 2 2 2 2 1 0 1 1 1 2 1 2 3 2 1 2 2 2 2 2 2 2 2 3 3 3 3 3
8 8 2 3 4 2 1 3 3 3 3 3 3 3 2 2 2 2 1 1 1 0 0 1 1 1 2 3 2 1 1 2 2 2 2 2 2 2 2 2 2 3 3 3
5 7 5 4 4 3 3 3 3 3 2 2 3 3 3 2 2 2 1 1 1 0 0 2 2 2 2 2 1 1 2 2 2 1 2 2 2 2 2 3 3 3 3 3
6 6 4 4 4 4 3 2 2 1 1 2 2 2 2 2 2 2 2 1 1 1 1 2 2 2 2 2 1 1 2 2 2 2 2 2 2 2 3 4 5 4 4 4
7 4 4 5 4 2 2 2 2 1 2 1 1 2 2 2 2 2 2 1 1 1 2 2 2 2 3 2 1 1 2 2 2 1 2 2 2 3 5 5 7 7 7 7
5 3 3 3 2 1 1 2 1 1 1 1 1 1 1 1 2 1 2 2 2 2 2 2 2 3 3 2 2 1 2 2 2 2 2 2 2 2 3 4 6 6 6 7
3 1 2 2 2 1 1 1 1 1 1 0 1 1 1 1 2 2 2 2 2 2 2 2 2 3 3 2 2 2 2 3 3 2 2 2 2 2 3 3 4 4 5 7
3 1 2 1 1 1 1 1 2 2 2 2 2 2 1 2 2 3 3 3 2 2 2 2 3 4 3 2 2 2 2 2 2 2 2 2 2 2 2 3 3 4 3 5
2 1 0 0 0 1 1 1 1 1 2 2 2 2 2 2 2 3 3 2 2 2 3 3 4 4 3 2 2 2 2 4 3 2 2 2 2 2 2 2 3 3 3 4
1 2 2 2 2 1 1 1 1 1 1 2 2 2 2 2 3 3 3 3 2 3 3 3 4 4 3 2 2 2 2 3 4 3 2 2 2 2 2 2 3 3 3 5
3 3 3 3 3 2 2 2 1 1 2 2 2 2 1 1 2 4 4 3 3 4 4 4 4 3 3 3 2 2 2 2 2 2 2 2 2 2 2 2 3 4 4 5
1 1 1 2 2 2 2 2 2 2 2 1 1 2 2 2 3 3 3 3 3 4 4 5 6 4 3 4 3 2 2 2 2 2 2 4 4 2 2 3 3 4 4 4
1 1 1 1 1 1 2 2 1 2 2 1 1 2 2 3 3 3 3 3 3 4 4 5 4 4 4 4 4 1 1 2 2 3 3 2 3 3 3 3 3 4 4 4
1 1 1 1 1 1 2 2 2 2 2 2 2 3 4 4 3 2 2 4 4 4 4 6 3 3 3 4 4 1 2 2 2 3 3 3 3 3 3 3 4 4 4 4
1 1 2 2 2 2 2 2 2 2 3 3 3 3 3 4 3 3 3 4 4 6 4 3 3 5 5 4 1 1 2 2 3 3 3 3 3 4 4 4 4 4 4 4
2 2 2 2 2 2 2 2 3 3 3 3 4 4 4 4 3 3 4 3 3 6 4 3 5 8 7 2 1 2 2 3 3 3 3 3 4 4 4 4 4 5 5 5
2 2 2 2 1 1 3 3 3 3 3 4 4 4 4 3 3 3 4 6 7 7 4 5 8 8 5 2 1 2 3 3 3 4 4 4 4 4 4 5 5 5 5 6
2 2 2 2 2 3 4 3 3 3 3 3 4 4 3 3 4 4 3 4 6 7 4 6 8 7 3 2 2 3 3 4 5 4 4 4 4 4 5 5 5 5 6 6
2 2 3 3 3 3 3 2 3 3 3 3 4 3 3 3 3 3 3 4 5 6 4 3 4 5 3 3 3 4 4 5 5 4 4 5 5 5 5 6 7 6 6 7
2 2 2 2 3 3 3 3 3 4 4 4 4 4 4 3 3 3 4 4 4 4 4 4 3 3 3 4 4 4 4 5 5 5 5 5 5 5 6 7 6 7 7 7
Wind_Direction
256 264 247 242 240 216 214 218 227 245 244 258 253 247 246 242 252 259 257 248 246 247 248 246 243 244 244 250 245 234 226 234 242 247 239 235 238 236 229 231 238 234 231 243
268 262 257 260 255 235 231 234 238 254 263 262 264 261 252 244 240 249 258 254 250 248 247 245 243 242 243 249 250 231 230 242 252 251 248 244 242 241 243 244 247 245 240 241
265 285 298 263 243 226 222 220 216 236 250 266 265 258 247 244 235 242 251 256 255 247 242 242 240 234 230 234 241 231 235 249 252 248 251 251 247 241 243 244 243 243 244 245
259 307 250 249 229 210 221 239 226 236 258 259 255 260 260 247 235 247 250 255 261 259 251 249 244 236 229 220 221 233 240 248 253 249 251 251 241 242 245 247 245 246 248 247
220 248 267 278 253 189 206 255 232 236 256 265 276 303 281 261 237 237 245 250 256 254 254 248 235 227 212 224 226 238 246 250 253 252 254 251 249 250 250 243 250 250 248 242
216 237 254 258 239 186 145 267 241 223 246 257 249 263 267 274 291 284 277 264 262 269 257 239 242 199 191 224 229 245 250 254 257 251 247 249 250 258 263 252 254 256 262 255
227 240 259 259 228 132 188 256 289 241 242 223 222 238 270 302 300 280 291 292 281 251 249 249 224 172 197 225 247 257 263 265 267 256 249 246 244 254 256 261 262 257 263 266
208 228 252 208 150 191 232 300 279 263 247 228 243 256 276 283 287 300 319 328 331 247 284 297 196 167 219 256 269 274 272 269 264 260 257 260 241 251 253 252 253 258 262 269
205 224 274 179 207 260 310 280 275 263 262 232 237 255 278 292 293 292 295 301 316 182 331 340 318 187 233 278 285 283 283 275 271 273 267 265 246 250 248 242 243 254 254 266
245 255 261 264 276 292 289 277 283 268 257 220 229 249 280 288 295 298 300 297 308 78 333 316 323 320 272 295 315 285 280 284 281 272 275 272 269 253 249 246 242 248 254 260
245 267 299 284 265 270 287 307 304 307 289 233 217 252 263 277 287 287 293 305 297 253 270 298 325 324 321 325 337 305 289 287 294 293 284 278 281 267 262 248 243 244 239 243
239 239 233 265 274 270 266 278 277 296 328 329 240 247 270 282 287 286 289 303 311 302 298 309 322 319 323 323 312 290 296 300 295 291 290 287 290 305 304 296 288 274 268 266
249 268 257 267 310 327 262 282 305 290 257 295 316 275 276 302 314 316 310 308 293 289 296 310 320 318 320 322 316 290 280 288 285 284 282 284 287 293 307 317 312 302 297 294
282 258 266 266 277 322 326 315 356 2 335 315 325 345 339 327 329 321 303 297 298 306 315 317 314 309 314 321 312 299 285 284 290 285 285 287 287 286 287 296 308 309 314 313
296 256 225 264 10 11 23 58 49 14 14 11 15 2 351 334 321 316 316 325 335 332 324 322 313 308 320 318 305 300 293 287 286 284 283 283 285 286 285 286 291 301 311 315
288 331 122 161 261 351 29 46 28 330 343 349 350 343 331 319 313 318 328 341 339 315 311 310 301 304 316 312 310 308 297 296 301 296 293 292 292 290 292 294 298 302 303 305
203 258 252 259 261 285 290 273 247 269 298 305 304 312 327 336 336 330 327 323 309 302 304 300 297 308 312 304 297 298 301 302 309 312 306 298 297 292 292 293 294 298 299 299
233 242 230 223 224 237 266 276 266 273 280 287 301 322 332 319 300 302 312 323 328 324 314 306 304 305 305 302 289 290 290 297 300 294 295 292 293 290 288 290 296 300 305 311
231 229 233 228 219 215 238 258 268 273 283 289 292 287 283 283 282 291 310 321 315 307 306 307 315 325 311 301 304 282 280 288 294 295 295 299 309 311 302 297 297 299 303 306
241 220 211 236 235 212 235 252 258 275 285 278 278 290 295 293 291 295 301 287 273 272 284 296 302 304 299 294 300 284 272 280 287 293 295 292 294 297 296 295 295 295 297 299
242 231 221 221 244 254 242 235 233 260 281 273 255 265 274 285 287 283 288 294 297 293 290 300 311 299 291 292 294 280 266 271 276 280 284 287 290 293 294 295 296 296 295 296
242 235 238 231 234 266 270 254 241 253 269 274 270 267 273 282 286 282 268 268 285 303 310 295 295 296 300 307 302 281 271 269 271 275 277 279 281 285 289 291 292 293 293 292
238 234 239 244 244 262 284 270 254 250 257 263 265 264 263 268 271 273 287 285 282 294 305 286 295 302 309 327 310 294 285 273 270 271 273 273 273 275 279 283 285 287 289 290
230 233 243 251 240 251 272 276 271 265 263 267 265 260 258 270 279 264 262 289 301 303 303 298 306 312 327 354 319 298 290 285 279 272 269 270 272 273 274 277 280 283 284 285
229 228 226 230 245 255 261 274 279 273 272 274 274 269 261 253 259 275 276 279 291 303 303 304 307 313 325 307 294 288 285 278 274 275 270 272 272 272 273 273 274 278 280 281
224 237 243 243 245 252 256 258 263 268 268 276 282 278 275 272 265 269 275 278 278 293 298 291 292 299 294 285 283 282 283 289 295 293 282 278 274 271 272 273 273 274 276 276
240 244 251 265 262 252 251 252 256 262 262 262 275 279 275 275 275 273 275 279 281 282 282 280 277 275 276 277 279 281 281 281 279 278 278 276 276 273 270 269 272 272 273 273
Height
1483 1480 1481 1479 1478 1480 1481 1478 1477 1468 1467 1460 1459 1460 1459 1459 1459 1458 1457 1457 1456 1455 1455 1454 1454 1454 1454 1454 1454 1454 1454 1454 1454 1454 1454 1455 1455 1455 1455 1456 1456 1456 1456 1457
1483 1478 1478 1476 1472 1472 1473 1472 1470 1466 1462 1455 1455 1456 1456 1455 1455 1454 1453 1453 1453 1452 1451 1451 1450 1450 1450 1449 1449 1449 1449 1449 1450 1450 1450 1450 1450 1450 1451 1451 1451 1451 1451 1452
1481 1480 1477 1471 1464 1464 1465 1464 1463 1460 1454 1452 1453 1453 1452 1451 1451 1450 1449 1449 1449 1448 1448 1447 1447 1446 1445 1445 1445 1445 1445 1445 1445 1445 1445 1445 1445 1445 1446 1446 1446 1446 1446 1447
1483 1482 1477 1457 1456 1456 1458 1456 1456 1454 1451 1451 1450 1448 1448 1447 1447 1446 1446 1445 1445 1444 1444 1443 1443 1442 1442 1441 1441 1440 1440 1440 1440 1440 1440 1440 1440 1440 1441 1441 1441 1441 1441 1441
1481 1479 1466 1457 1454 1455 1456 1452 1449 1450 1448 1448 1447 1446 1444 1444 1444 1443 1442 1442 1441 1440 1440 1439 1439 1438 1437 1437 1437 1436 1436 1436 1436 1436 1436 1436 1436 1436 1436 1436 1436 1436 1436 1436
1477 1473 1464 1451 1451 1451 1454 1451 1445 1444 1444 1445 1445 1447 1442 1440 1440 1439 1439 1438 1437 1436 1436 1435 1435 1434 1434 1433 1432 1432 1432 1432 1432 1431 1431 1431 1431 1431 1431 1431 1431 1431 1431 1431
1472 1469 1457 1451 1450 1451 1454 1445 1443 1442 1441 1442 1442 1441 1439 1437 1436 1436 1435 1434 1433 1433 1432 1432 1431 1431 1430 1429 1429 1429 1428 1428 1428 1428 1427 1427 1427 1427 1427 1427 1426 1426 1426 1426
1469 1466 1455 1450 1450 1450 1445 1443 1441 1440 1439 1439 1438 1437 1436 1434 1433 1433 1431 1431 1430 1429 1429 1428 1428 1427 1426 1426 1426 1425 1425 1424 1424 1424 1423 1423 1422 1422 1422 1422 1422 1421 1421 1421
1458 1452 1447 1446 1444 1444 1443 1441 1439 1438 1437 1436 1435 1434 1433 1432 1431 1430 1429 1428 1427 1426 1426 1425 1425 1424 1423 1423 1422 1421 1421 1421 1420 1420 1419 1419 1418 1418 1418 1417 1417 1416 1416 1416
1455 1447 1445 1444 1442 1441 1440 1439 1438 1437 1435 1434 1432 1431 1430 1429 1428 1427 1426 1425 1424 1423 1423 1422 1422 1421 1421 1420 1419 1418 1417 1417 1416 1416 1415 1415 1415 1414 1414 1413 1413 1412 1412 1412
1450 1444 1443 1440 1439 1439 1438 1436 1435 1434 1433 1432 1430 1429 1428 1427 1426 1425 1424 1423 1422 1421 1420 1420 1419 1418 1418 1417 1416 1414 1414 1413 1413 1412 1412 1411 1411 1410 1410 1409 1409 1408 1408 1408
1443 1440 1440 1438 1436 1436 1435 1434 1433 1431 1430 1429 1428 1426 1425 1424 1423 1422 1422 1421 1420 1419 1418 1417 1416 1415 1415 1414 1413 1411 1410 1410 1409 1408 1408 1407 1406 1406 1405 1406 1405 1404 1405 1405
1439 1437 1437 1435 1435 1434 1433 1432 1430 1429 1428 1427 1426 1425 1423 1422 1422 1421 1420 1419 1418 1417 1416 1415 1414 1413 1412 1411 1409 1408 1407 1407 1406 1405 1405 1404 1403 1402 1402 1402 1402 1401 1401 1400
1436 1435 1434 1433 1432 1431 1430 1430 1428 1427 1426 1425 1424 1423 1422 1421 1420 1419 1418 1417 1416 1415 1413 1412 1411 1410 1409 1408 1407 1406 1405 1404 1403 1402 1402 1401 1400 1399 1399 1398 1397 1397 1397 1397
1433 1433 1432 1431 1430 1429 1428 1427 1426 1425 1423 1423 1422 1421 1420 1419 1418 1417 1416 1415 1413 1412 1411 1409 1408 1407 1406 1405 1404 1403 1402 1401 1400 1400 1399 1398 1397 1396 1396 1395 1394 1394 1393 1393
1431 1430 1429 1428 1427 1426 1426 1425 1424 1423 1422 1421 1420 1419 1418 1417 1416 1415 1414 1412 1411 1409 1408 1407 1406 1405 1404 1403 1402 1400 1399 1399 1398 1397 1396 1395 1395 1394 1393 1392 1391 1390 1390 1389
1429 1428 1427 1426 1425 1424 1424 1423 1422 1421 1420 1419 1418 1417 1416 1415 1414 1413 1412 1410 1409 1407 1406 1405 1404 1403 1402 1400 1399 1398 1397 1396 1396 1395 1394 1393 1392 1391 1390 1389 1389 1388 1387 1387
1427 1426 1425 1424 1423 1422 1422 1421 1420 1419 1418 1418 1417 1416 1415 1413 1412 1411 1410 1408 1407 1405 1404 1403 1402 1401 1399 1398 1397 1396 1395 1394 1393 1392 1392 1391 1390 1389 1388 1387 1386 1385 1384 1384
1424 1423 1423 1422 1421 1421 1420 1419 1418 1418 1417 1416 1415 1414 1413 1412 1410 1409 1407 1406 1404 1403 1402 1401 1400 1398 1397 1396 1395 1393 1392 1392 1391 1390 1389 1389 1388 1387 1386 1385 1383 1382 1381 1380
1421 1421 1420 1420 1419 1419 1418 1417 1417 1416 1415 1414 1413 1412 1411 1410 1408 1407 1405 1404 1402 1401 1400 1398 1397 1396 1395 1394 1393 1391 1390 1390 1389 1388 1387 1386 1385 1384 1383 1382 1381 1379 1378 1377
1419 1419 1418 1418 1417 1417 1416 1415 1415 1414 1413 1412 1411 1409 1408 1407 1406 1404 1402 1401 1400 1399 1397 1396 1395 1393 1392 1391 1390 1389 1388 1387 1386 1385 1384 1383 1382 1381 1380 1379 1378 1376 1375 1374
1417 1417 1416 1416 1415 1414 1414 1413 1413 1412 1411 1410 1408 1407 1406 1404 1403 1402 1400 1399 1398 1396 1395 1393 1392 1391 1390 1389 1388 1386 1385 1384 1383 1382 1381 1380 1379 1378 1376 1375 1374 1373 1371 1370
1415 1415 1414 1413 1413 1412 1411 1411 1410 1409 1408 1407 1406 1404 1403 1402 1400 1399 1397 1396 1395 1393 1392 1390 1389 1388 1387 1386 1384 1383 1382 1381 1380 1379 1378 1376 1375 1374 1373 1371 1370 1369 1367 1366
1413 1412 1412 1411 1410 1409 1409 1408 1407 1406 1405 1404 1403 1402 1400 1398 1397 1396 1394 1393 1391 1390 1388 1387 1386 1385 1383 1382 1381 1380 1378 1377 1376 1375 1374 1372 1371 1370 1368 1367 1366 1364 1363 1361
1411 1410 1409 1409 1408 1407 1406 1405 1404 1403 1402 1401 1400 1398 1397 1395 1394 1392 1391 1389 1388 1386 1384 1383 1382 1381 1379 1378 1377 1375 1374 1373 1372 1370 1369 1368 1366 1365 1364 1362 1361 1360 1358 1356
1408 1407 1406 1406 1405 1404 1403 1402 1401 1400 1398 1397 1396 1395 1393 1392 1390 1389 1387 1386 1384 1383 1381 1380 1378 1377 1376 1374 1373 1372 1370 1369 1368 1366 1365 1363 1362 1360 1359 1358 1356 1355 1353 1351
1405 1404 1403 1402 1402 1401 1400 1399 1398 1396 1395 1393 1392 1391 1389 1388 1386 1385 1383 1382 1380 1379 1377 1376 1375 1373 1372 1370 1369 1368 1366 1365 1363 1362 1360 1359 1357 1356 1354 1353 1351 1349 1348 1346